Wind_Speed
12 12 11 11 11 11 11 10 10 10 10 10 11 11 11 11 11 11 11 11 13 14 15 14 14 13 12 12 12 12 12 12 12 12 12 13 13 13 12 12 12 12 12 13
14 14 13 12 12 12 11 11 10 11 10 11 11 12 11 11 12 11 11 12 13 14 15 14 14 13 13 13 13 12 12 13 13 13 13 13 13 12 12 13 13 14 14 15
15 16 15 13 12 12 12 11 11 10 11 11 11 12 12 12 12 12 12 13 13 13 14 14 13 13 14 14 13 13 13 13 13 13 13 13 13 13 13 13 14 15 16 17
16 16 16 12 13 13 12 12 11 11 11 12 12 12 13 13 13 13 13 13 13 13 14 14 14 14 14 14 14 13 14 14 14 14 14 13 12 13 13 14 15 16 17 18
18 17 15 13 13 13 13 12 12 12 12 13 13 13 13 14 14 14 14 14 14 14 14 15 15 15 15 14 14 14 14 14 14 14 13 13 13 13 14 15 16 17 18 19
18 18 16 14 15 14 14 13 13 13 13 14 14 14 13 15 15 15 15 14 14 14 15 15 15 15 15 15 15 14 13 13 13 13 13 14 14 15 16 17 18 19 20 21
19 18 16 15 16 16 15 13 14 14 14 15 14 13 13 15 15 15 16 15 15 15 15 15 16 16 15 15 15 15 15 15 15 15 15 16 16 17 18 18 19 20 21 22
20 19 16 16 16 16 16 16 15 15 15 15 16 15 14 15 15 16 16 17 16 16 16 16 16 17 16 16 16 16 16 16 16 17 17 17 17 18 19 20 21 22 23 24
21 19 18 17 17 17 17 17 17 16 16 16 16 16 16 16 16 16 16 17 17 17 17 17 17 17 17 17 17 17 17 17 17 18 18 18 19 20 21 22 23 24 26 28
22 21 20 20 19 18 18 18 18 17 17 17 17 17 17 17 17 17 17 18 18 18 18 17 18 18 18 18 18 18 18 18 19 19 19 20 20 21 23 24 26 27 28 30
24 22 21 21 21 21 20 19 19 18 18 18 18 18 18 18 17 17 17 18 18 18 19 18 18 19 19 19 19 19 20 20 20 20 21 21 22 23 24 25 27 29 31 32
24 23 23 22 23 22 21 21 20 19 19 20 20 19 19 19 18 18 18 18 18 18 19 19 19 20 20 20 21 21 21 21 21 22 22 23 24 26 27 28 30 31 33 34
25 24 24 23 24 23 22 22 21 21 21 21 20 20 20 20 20 20 20 19 19 19 20 20 20 20 20 21 21 21 22 23 23 24 25 26 27 28 29 31 32 33 34 35
25 24 25 24 24 24 23 23 22 22 22 21 21 21 21 21 21 21 21 21 21 21 21 20 20 21 21 22 22 22 23 24 25 26 27 28 29 30 31 33 34 35 36 37
25 24 25 24 24 24 24 24 23 23 23 22 22 22 22 22 22 22 22 21 21 21 21 21 21 22 22 22 22 23 24 25 26 28 29 30 31 32 34 35 36 38 38 39
26 25 24 24 24 24 24 24 24 24 24 23 23 23 23 23 23 23 23 22 22 22 23 23 22 23 23 23 24 25 26 27 29 30 31 32 33 35 36 37 38 39 40 40
26 26 25 25 25 25 25 24 24 24 24 24 24 24 25 25 24 24 24 23 23 23 24 24 24 24 24 25 26 27 29 30 31 32 33 35 36 37 38 39 40 40 41 42
27 26 26 26 26 26 26 26 26 25 25 25 26 26 26 25 25 25 25 25 24 25 25 25 26 26 26 27 29 30 31 32 33 35 36 37 38 39 39 40 41 41 42 42
27 27 27 27 27 27 27 27 27 27 27 27 27 27 27 27 27 27 27 26 26 26 27 27 28 28 29 30 31 32 33 34 35 36 37 38 39 39 40 41 42 42 43 43
27 27 27 27 27 27 27 27 27 28 27 27 28 28 28 28 28 28 28 27 28 29 29 29 30 30 31 32 33 34 34 35 36 37 38 39 39 40 42 42 43 43 44 45
28 28 28 28 28 28 28 28 28 28 28 28 28 28 29 29 29 29 29 30 30 31 31 32 32 33 34 34 35 35 36 37 37 38 39 39 40 41 42 43 44 45 46 47
29 29 29 28 28 28 29 29 29 29 30 30 29 29 30 30 31 31 31 32 32 33 33 34 34 35 35 36 36 36 37 37 38 38 39 40 41 42 43 44 45 45 46 47
31 31 30 29 29 30 30 30 30 31 31 31 31 30 30 30 31 32 32 33 34 34 34 35 36 36 36 36 37 37 38 39 39 39 40 41 41 43 44 44 45 46 47 47
32 31 31 31 31 31 32 32 32 32 32 32 32 32 32 32 32 33 34 34 34 34 35 35 36 36 36 37 38 39 39 40 40 40 41 42 43 44 45 45 46 47 47 48
32 32 32 32 32 32 33 33 33 33 33 33 33 34 34 34 34 34 34 34 34 34 35 35 36 37 37 38 39 39 40 40 40 41 42 43 44 45 45 46 46 47 47 47
32 32 32 32 33 33 33 33 33 33 34 33 34 34 34 34 34 35 35 35 35 36 36 36 37 37 38 39 39 39 39 40 40 42 43 44 44 45 45 46 46 46 46 46
32 32 32 32 32 32 32 33 33 33 34 34 34 33 34 35 35 36 36 36 36 36 37 37 38 38 39 39 39 39 40 41 42 42 43 43 44 44 45 45 45 45 45 45
Wind_Direction
238 243 249 252 253 255 256 254 249 241 239 238 238 239 242 237 235 235 231 231 232 232 234 234 233 234 239 241 240 245 246 246 253 262 264 264 264 265 267 269 271 276 280 285
241 246 250 252 256 258 258 254 250 243 238 237 237 237 238 237 236 238 236 235 235 233 233 235 235 238 240 243 244 247 248 251 256 264 266 265 264 262 265 269 273 278 282 287
244 248 251 253 257 256 255 254 249 244 239 236 238 239 238 239 240 244 243 239 238 237 234 235 237 241 243 245 249 251 252 254 259 264 265 265 264 263 266 272 276 280 284 288
248 249 250 255 252 251 253 252 247 244 239 237 239 239 239 241 243 244 245 245 244 240 235 235 239 243 246 245 248 253 255 256 258 259 261 266 269 268 270 275 279 283 287 290
248 249 250 251 249 248 250 249 246 246 243 244 245 246 244 244 245 246 245 247 245 243 240 239 241 243 247 247 249 253 255 256 255 258 262 267 271 272 275 278 281 286 290 292
249 252 252 248 248 248 248 248 248 247 247 247 249 252 249 246 246 246 246 247 245 244 241 241 242 245 249 249 249 251 255 256 257 262 266 269 272 276 279 282 285 288 291 294
250 252 251 249 248 249 250 250 248 247 248 249 248 248 248 247 247 245 244 245 246 245 244 244 244 246 248 248 250 250 255 259 259 263 267 271 275 278 281 284 287 290 293 295
249 249 249 249 248 249 249 248 247 246 248 249 247 246 247 249 250 247 245 244 245 247 247 247 247 248 248 251 252 255 259 261 262 266 269 273 276 280 283 287 289 292 294 295
246 248 250 250 249 247 248 248 247 248 249 249 247 247 248 250 250 248 247 243 244 248 250 248 249 251 251 254 256 258 261 262 264 267 270 274 278 282 286 289 291 292 295 296
246 247 249 249 249 248 248 249 249 248 248 248 247 248 249 250 249 247 247 244 245 249 251 252 250 250 253 257 257 258 260 263 266 270 274 277 281 286 288 290 291 293 296 297
247 249 248 247 248 249 249 249 249 247 247 246 247 248 249 252 250 247 248 247 246 248 249 250 252 254 256 258 261 263 263 265 270 273 276 280 284 287 290 292 294 295 296 298
248 247 246 246 247 248 248 248 247 246 247 247 249 251 251 251 251 251 250 248 248 250 252 254 256 257 258 262 265 267 268 269 271 275 279 282 285 288 290 292 295 296 298 300
246 245 246 245 245 246 247 248 247 247 248 248 250 251 251 252 251 251 253 252 252 254 256 256 256 258 261 263 267 270 271 272 273 276 280 283 286 288 291 293 296 298 299 300
244 244 244 245 245 246 246 247 247 248 249 249 250 251 251 253 253 253 254 254 254 256 258 258 258 261 264 267 270 272 274 276 277 280 283 285 288 290 292 294 296 298 299 300
242 243 244 244 245 246 245 247 248 248 248 249 250 251 252 253 254 254 255 256 257 257 258 260 262 264 267 268 270 273 276 278 280 282 284 286 289 291 293 295 297 298 299 300
241 242 243 243 244 246 247 248 249 248 248 249 249 250 251 253 255 256 256 257 259 260 262 262 264 267 271 273 274 276 278 280 282 283 285 287 290 292 294 296 297 298 299 300
241 242 243 243 244 246 248 249 249 249 249 249 249 250 252 254 256 257 258 259 261 263 265 266 267 270 272 274 276 277 279 280 283 285 287 288 290 292 293 294 296 297 299 300
241 242 243 244 245 246 247 249 249 250 250 250 250 251 253 255 256 257 258 260 262 264 267 269 270 272 274 276 278 279 280 282 285 286 288 289 290 291 292 294 295 296 298 299
241 242 243 245 246 247 248 249 250 250 251 253 253 253 254 255 256 258 259 261 262 265 268 270 272 275 276 278 280 281 282 284 286 287 288 289 290 292 293 294 295 296 297 299
243 243 244 245 247 248 249 249 250 251 253 255 255 256 256 257 258 259 260 262 264 266 268 270 272 275 277 279 281 283 285 286 287 288 289 290 291 292 293 295 296 297 298 299
244 245 246 247 248 249 250 251 251 252 253 255 257 257 257 257 258 259 261 263 265 268 270 272 274 276 278 280 282 284 285 287 289 290 290 291 292 293 294 295 296 297 298 299
245 246 247 248 249 250 251 252 253 253 254 256 257 258 259 260 259 260 262 265 267 269 271 273 275 277 279 280 282 284 286 288 289 290 291 292 292 294 294 295 297 298 299 299
246 247 248 249 250 251 253 254 255 255 256 257 258 259 260 261 262 262 264 266 269 271 272 273 275 277 279 281 283 285 287 288 289 290 291 292 293 294 295 296 298 298 299 300
246 248 250 251 252 253 253 255 257 257 258 258 259 259 260 261 263 264 266 268 270 271 273 274 276 277 279 281 283 285 287 288 288 290 291 292 293 294 296 297 298 299 300 301
247 250 252 253 254 255 255 256 257 259 260 260 259 260 261 262 264 266 267 269 270 272 274 275 277 279 280 282 283 285 286 287 288 290 291 293 294 295 296 297 298 300 301 302
247 249 252 253 254 255 255 257 258 259 260 260 260 260 261 262 264 266 268 270 271 272 274 276 278 280 281 283 285 286 287 288 289 290 292 293 295 296 297 298 299 300 301 302
249 251 252 254 254 255 256 257 259 260 260 260 260 261 261 262 265 267 269 270 271 273 274 276 278 279 281 283 284 285 287 288 289 290 292 294 295 296 297 298 299 301 302 302
Height
5824 5825 5826 5827 5828 5828 5829 5830 5831 5832 5832 5833 5834 5835 5836 5837 5838 5839 5840 5841 5843 5844 5845 5846 5847 5848 5849 5850 5851 5852 5852 5853 5853 5853 5853 5853 5853 5853 5854 5854 5854 5854 5854 5853
5821 5822 5823 5824 5825 5826 5826 5827 5828 5829 5830 5830 5831 5832 5833 5834 5835 5836 5838 5839 5840 5841 5842 5843 5844 5845 5846 5847 5848 5848 5849 5850 5850 5849 5849 5849 5849 5849 5850 5850 5850 5850 5850 5849
5818 5819 5820 5822 5823 5823 5824 5824 5825 5826 5828 5828 5829 5829 5831 5832 5833 5834 5835 5836 5837 5838 5839 5840 5841 5842 5843 5844 5845 5845 5846 5846 5846 5846 5846 5845 5845 5846 5847 5847 5847 5846 5846 5845
5814 5816 5817 5821 5819 5820 5821 5822 5822 5823 5824 5825 5826 5827 5828 5829 5830 5831 5832 5833 5834 5834 5836 5837 5838 5839 5840 5841 5842 5842 5843 5843 5843 5843 5843 5843 5843 5843 5843 5843 5843 5843 5842 5841
5810 5811 5813 5816 5816 5816 5817 5818 5819 5820 5821 5822 5822 5823 5825 5825 5826 5827 5829 5830 5830 5831 5832 5833 5835 5836 5837 5837 5838 5839 5839 5839 5840 5840 5840 5840 5840 5840 5840 5839 5839 5838 5838 5837
5806 5807 5809 5813 5812 5812 5814 5815 5816 5816 5817 5818 5819 5820 5822 5822 5822 5824 5825 5826 5827 5828 5829 5830 5831 5832 5833 5834 5835 5835 5836 5836 5836 5836 5836 5836 5836 5836 5836 5835 5835 5834 5833 5831
5801 5802 5804 5807 5807 5809 5811 5813 5812 5812 5813 5815 5815 5817 5817 5818 5819 5820 5821 5822 5823 5824 5825 5826 5827 5828 5829 5830 5831 5831 5832 5832 5832 5833 5833 5832 5832 5832 5831 5830 5830 5828 5827 5826
5796 5797 5802 5802 5803 5805 5806 5806 5807 5808 5809 5810 5811 5812 5813 5814 5815 5816 5817 5818 5819 5820 5821 5822 5823 5824 5825 5826 5827 5827 5828 5828 5828 5828 5828 5828 5827 5827 5826 5825 5824 5823 5821 5819
5792 5795 5796 5797 5798 5799 5800 5802 5803 5804 5805 5806 5807 5808 5809 5810 5810 5812 5813 5814 5815 5816 5817 5818 5819 5820 5821 5821 5822 5822 5823 5823 5824 5823 5823 5823 5822 5821 5820 5819 5818 5816 5815 5812
5785 5788 5790 5791 5792 5794 5795 5796 5797 5799 5800 5801 5802 5803 5804 5805 5806 5807 5808 5809 5811 5812 5812 5813 5814 5815 5816 5816 5817 5818 5818 5818 5818 5818 5818 5817 5816 5815 5814 5813 5811 5809 5807 5805
5779 5782 5784 5785 5786 5788 5789 5791 5792 5794 5795 5796 5797 5799 5800 5801 5802 5803 5804 5805 5806 5807 5808 5809 5809 5810 5811 5811 5812 5813 5813 5813 5813 5813 5812 5811 5810 5809 5808 5806 5804 5802 5799 5796
5773 5776 5777 5780 5781 5782 5783 5785 5787 5788 5790 5791 5792 5793 5795 5796 5797 5798 5799 5800 5801 5802 5803 5804 5804 5805 5806 5806 5807 5807 5807 5807 5807 5807 5806 5805 5804 5802 5800 5798 5796 5793 5790 5787
5766 5768 5770 5773 5774 5776 5777 5779 5781 5783 5784 5786 5787 5788 5789 5790 5791 5793 5794 5795 5796 5797 5798 5798 5799 5799 5800 5800 5800 5801 5801 5801 5800 5800 5799 5798 5796 5794 5792 5790 5787 5784 5781 5778
5759 5761 5764 5766 5768 5770 5771 5773 5775 5777 5778 5780 5781 5782 5784 5785 5786 5787 5788 5789 5790 5791 5792 5793 5793 5794 5794 5794 5794 5794 5794 5794 5793 5792 5791 5790 5788 5786 5784 5781 5778 5775 5771 5768
5752 5754 5757 5759 5761 5763 5765 5767 5769 5770 5772 5773 5775 5776 5778 5779 5780 5781 5782 5783 5784 5785 5786 5786 5787 5787 5787 5787 5788 5788 5787 5786 5786 5785 5783 5782 5780 5777 5775 5772 5769 5765 5761 5757
5745 5747 5750 5752 5754 5756 5758 5760 5762 5764 5765 5767 5769 5770 5772 5773 5774 5775 5776 5777 5778 5779 5779 5780 5780 5781 5780 5780 5780 5780 5779 5778 5777 5776 5774 5773 5770 5768 5765 5762 5758 5754 5751 5747
5738 5740 5743 5745 5748 5750 5752 5753 5755 5757 5759 5761 5762 5764 5765 5766 5767 5768 5769 5770 5771 5772 5772 5773 5773 5773 5773 5773 5772 5772 5771 5770 5768 5767 5765 5763 5760 5757 5754 5751 5747 5744 5740 5735
5731 5733 5736 5738 5740 5742 5744 5746 5748 5750 5752 5754 5755 5757 5758 5759 5760 5761 5762 5763 5764 5764 5765 5765 5765 5765 5765 5764 5764 5763 5762 5760 5759 5757 5755 5752 5749 5746 5743 5740 5736 5732 5728 5724
5723 5726 5728 5730 5732 5735 5737 5739 5741 5743 5744 5746 5748 5749 5750 5752 5753 5754 5755 5755 5756 5757 5757 5757 5757 5757 5756 5756 5755 5754 5752 5751 5749 5746 5744 5741 5738 5735 5732 5728 5724 5720 5716 5712
5715 5718 5720 5723 5725 5727 5729 5731 5733 5735 5736 5738 5740 5741 5742 5743 5744 5746 5746 5747 5748 5748 5749 5748 5748 5748 5747 5746 5745 5744 5742 5740 5738 5735 5733 5730 5727 5723 5720 5716 5713 5708 5704 5700
5707 5710 5712 5715 5717 5719 5721 5723 5725 5727 5728 5730 5731 5732 5734 5735 5736 5737 5738 5739 5739 5739 5739 5739 5739 5738 5737 5736 5735 5733 5731 5729 5727 5724 5721 5718 5715 5712 5708 5704 5701 5696 5692 5687
5699 5702 5704 5706 5708 5710 5712 5714 5716 5718 5719 5721 5722 5723 5724 5725 5726 5727 5728 5729 5729 5729 5729 5729 5729 5728 5727 5725 5724 5722 5720 5718 5715 5713 5710 5707 5703 5700 5696 5692 5688 5684 5679 5674
5690 5693 5695 5697 5700 5702 5704 5705 5707 5709 5710 5712 5713 5714 5715 5716 5717 5718 5719 5719 5719 5719 5719 5718 5718 5717 5716 5714 5713 5711 5709 5706 5704 5701 5698 5695 5691 5688 5684 5680 5676 5671 5666 5661
5682 5684 5686 5688 5690 5692 5694 5696 5698 5699 5700 5702 5703 5704 5705 5706 5707 5707 5708 5708 5708 5708 5708 5707 5706 5705 5704 5703 5701 5699 5697 5695 5692 5689 5686 5683 5679 5676 5672 5668 5663 5658 5654 5649
5672 5675 5677 5679 5681 5683 5685 5686 5688 5689 5690 5692 5693 5694 5695 5696 5696 5697 5697 5697 5697 5697 5696 5696 5695 5694 5693 5691 5689 5687 5685 5683 5680 5677 5674 5670 5667 5663 5659 5655 5650 5645 5641 5636
5663 5665 5667 5669 5671 5673 5674 5676 5677 5679 5680 5681 5682 5683 5684 5685 5685 5686 5686 5686 5686 5686 5685 5684 5683 5682 5681 5679 5677 5675 5673 5670 5667 5664 5661 5658 5654 5650 5646 5642 5637 5633 5628 5623
5654 5656 5658 5660 5661 5663 5664 5666 5667 5668 5669 5671 5671 5672 5673 5674 5674 5674 5675 5675 5674 5674 5673 5673 5672 5670 5669 5667 5665 5663 5661 5658 5655 5652 5649 5645 5642 5638 5634 5629 5625 5620 5616 5611